Погода в Зенкине

Россия / Липецкая область     53°07′50″N   39°43′50″E
темп.,
°C
ветер,
м/с
пор.,
м/с
влажн.,
%
обл.,
%
осадки,
мм/ч
давл.,
гПа
погр.,
м
16 мая, вс
вс1600:00+15юз33855 0.0 101327
03:00+13ююз228610 0.0 101418
06:00+14ю238535 0.0 101468
09:00+20ю357110 0.0 1014448
12:00+23ююз3551100 0.0 10142031
15:00+24юз35465 0.0 10142021
18:00+23з1260100 0.0 1013114
21:00+18св226428 0.0 101416
17 мая, пн
пн1700:00+16в368299 0.0 101494
03:00+15всв398763 0.0 1013158
06:00+16всв368956 0.0 1013144
09:00+21вюв576886 0.0 1013372
12:00+24юв5754100 0.0 1013788
15:00+26вюв59565 0.0 10121106
18:00+23юв6126580 0.0 1012548
21:00+18вюв4148299 0.0 1011266
18 мая, вт
вт1800:00+18юв5166414 0.0 1011343
03:00+16юв513615 0.0 1011274
06:00+15вюв4127247 0.0 1011235
09:00+21юв6115841 0.0 1011449
12:00+25юв694641 0.0 1010832
15:00+26вюв7115158 0.0 10091397
18:00+24юв71462100 0.0 1008580
21:00+19вюв5157290 0.0 1008383
19 мая, ср
ср1900:00+19вюв5135850 0.0 1007330
03:00+16вюв412642 0.0 1007250
06:00+15вюв4107583 0.0 1007218
09:00+19юв576795 0.0 1007496
12:00+22юв586067 0.0 10061380
15:00+19ююв7107154 8.4 10071290
18:00+17ююв598289 0.8 1007580
21:00+14юв389392 1.0 1007153
20 мая, чт
чт2000:00+14ююв498887 0.3 1006225
03:00+11ююв499717 0.3 1007294
06:00+11ююв6995100 0.0 1007496
09:00+12ююв61095100 0.6 1007694
12:00+14ююз91181100 1.3 10081017
15:00+11ююз71288100 1.4 1010830
18:00+11юз71286100 0.1 1011839
21:00+12ююз61383100 0.1 1012589